* Astronomy

Members Login
Username 
 
Password 
    Remember Me  
Post Info TOPIC: Comet P/2000 O3 = 2005 W4 = 2011 E1 (SOHO)


L

Posts: 131433
Date:
Comet P/2005 W4 (SOHO)
Permalink  
 


Comet P/2005 W4 (SOHO) is at Opposition (3.394 AU) in the constellation Sagittarius on the 11th July 2015. 

Ephemeris

Date__(UT)__HR:MN     R.A._(ICRF/J2000.0)_DEC  Mag
 2015-Jul-10 00:00     19 29 15.66 -37 14 37.5   
 2015-Jul-11 00:00     19 27 57.46 -37 17 36.3   
 2015-Jul-12 00:00     19 26 38.82 -37 20 28.0   
 2015-Jul-13 00:00     19 25 19.79 -37 23 12.4   
 2015-Jul-14 00:00     19 24 00.43 -37 25 49.5   
 2015-Jul-15 00:00     19 22 40.78 -37 28 18.9   
 2015-Jul-16 00:00     19 21 20.90 -37 30 40.7   
 2015-Jul-17 00:00     19 20 00.85 -37 32 54.6   
 2015-Jul-18 00:00     19 18 40.67 -37 35 00.7   
 2015-Jul-19 00:00     19 17 20.42 -37 36 58.7   
 2015-Jul-20 00:00     19 16 00.15 -37 38 48.7   
 2015-Jul-21 00:00     19 14 39.91 -37 40 30.5   
 2015-Jul-22 00:00     19 13 19.77 -37 42 04.2   
 2015-Jul-23 00:00     19 11 59.77 -37 43 29.6   
 2015-Jul-24 00:00     19 10 39.97 -37 44 46.8   
 2015-Jul-25 00:00     19 09 20.41 -37 45 55.7   
 2015-Jul-26 00:00     19 08 01.15 -37 46 56.4   
 2015-Jul-27 00:00     19 06 42.25 -37 47 48.9   
 2015-Jul-28 00:00     19 05 23.74 -37 48 33.2   
 2015-Jul-29 00:00     19 04 05.68 -37 49 09.3   
 2015-Jul-30 00:00     19 02 48.12 -37 49 37.3   
 2015-Jul-31 00:00     19 01 31.10 -37 49 57.3   


__________________


L

Posts: 131433
Date:
Comet P/2000 O3 = 2005 W4 = 2011 E1 (SOHO)
Permalink  
 


Orbital elements:
P/2011 E1
Epoch 2011 Mar. 20.0 TT = JDT 2455640.5
T 2011 Mar. 9.83663 TT MPC
q 0.0533979 (2000.0) P Q
n 0.18553060 Peri. 57.25585 -0.19320163 -0.96806317
a 3.0445681 Node 44.78691 +0.80714017 -0.24939833
e 0.9824613 Incl. 13.10849 +0.55785113 +0.02557677
P 5.31
From 199 observations 2000 July 30-2011 Mar. 10.
MPEC 2011 - F14

__________________
Page 1 of 1  sorted by
 
Quick Reply

Please log in to post quick replies.



Create your own FREE Forum
Report Abuse
Powered by ActiveBoard